Ice Star — OUJK2 — position and weather

sailwx.info

Track history (hours):
 
Tides and Currents Weather Stations Pressure Air Temp Water Temp Dewpoint Dewpoint Depression Visibility Wind Speed Wind Dir Waves Ship Positions

Ice Star

Last reported at 2014-Oct-24 17:33 UTC. Time now 2014-Oct-25 20:40 UTC.
Position N 22°18' E 113°48'.

Length 367 m; draft 10.3 m.

Type: Ship. MMSI: 220596000.

Date/timePositionNaut miles runAvg speedWind from/ knotsBaromVisibWave heightAir tempDewpointWater temp
2014-Oct-24 17:33N 22°18' E 113°48'20 0.8
2014-Oct-23 15:33N 22°37' E 113°42'1313.3
2014-Oct-23 14:32N 22°24' E 113°46'1414.3
2014-Oct-23 13:34N 22°11' E 113°50'9 9.4
2014-Oct-23 12:33N 22°02' E 113°52'1 0.4
2014-Oct-23 10:33N 22°01' E 113°52'9 8.9
2014-Oct-23 09:33N 21°52' E 113°52'7 7.3
2014-Oct-23 08:32N 21°46' E 113°56'25710.1
2014-Oct-22 07:06N 23°37' E 118°09'814.9
2014-Oct-22 06:33N 23°41' E 118°16'1814.9
2014-Oct-22 05:22N 23°52' E 118°31'  
Track history (hours):
 
Tides and Currents Weather Stations Pressure Air Temp Water Temp Dewpoint Dewpoint Depression Visibility Wind Speed Wind Dir Waves Ship Positions

Ice Star

Last reported at 2014-Oct-24 17:33 UTC. Time now 2014-Oct-25 20:40 UTC.
Position N 22°18' E 113°48'.

Length 367 m; draft 10.3 m.

Type: Ship. MMSI: 220596000.

Date/timePositionNaut miles runAvg speedWind from/ knotsBaromVisibWave heightAir tempDewpointWater temp
2014-Oct-24 17:33N 22°18' E 113°48'20 0.8
2014-Oct-23 15:33N 22°37' E 113°42'1313.3
2014-Oct-23 14:32N 22°24' E 113°46'1414.3
2014-Oct-23 13:34N 22°11' E 113°50'9 9.4
2014-Oct-23 12:33N 22°02' E 113°52'1 0.4
2014-Oct-23 10:33N 22°01' E 113°52'9 8.9
2014-Oct-23 09:33N 21°52' E 113°52'7 7.3
2014-Oct-23 08:32N 21°46' E 113°56'25710.1
2014-Oct-22 07:06N 23°37' E 118°09'814.9
2014-Oct-22 06:33N 23°41' E 118°16'1814.9
2014-Oct-22 05:22N 23°52' E 118°31'  

Dump ship's entire track history